When you browse on this site, cookies collect data to enhance your experience and personalize the content and advertising you see.
Visit our Privacy Policy to learn more. By continuing to use the site, you agree to this use of cookies and data.
  • In Schweiz
  • Länderverzeichnis
  • Für 7 Tage
  • Wassertemperatur
  • Satellitenkarten
  • Wetterkarte
  • Widgets
  • user-avatar
    Anmelden

    Stündliche Wetter La Massana

    Heute, 23 Mai, Donnerstag

    Zeit Temperatur Niederschläge Wind Luftdruck Luftfeuchtigkeit
    00:00 +5°C° 0 mm 1 m/S 610 mmHg 85%
    01:00 +4°C° 0 mm 1 m/S 609 mmHg 83%
    02:00 +4°C° 0 mm 1 m/S 609 mmHg 81%
    03:00 +4°C° 0 mm 1 m/S 609 mmHg 79%
    04:00 +5°C° 0 mm 1 m/S 610 mmHg 76%
    05:00 +6°C° 0 mm 1 m/S 610 mmHg 73%
    06:00 +8°C° 0 mm 1 m/S 611 mmHg 70%
    07:00 +10°C° 0 mm 1 m/S 612 mmHg 61%
    08:00 +13°C° 0 mm 1 m/S 613 mmHg 53%
    09:00 +15°C° 0 mm 1 m/S 614 mmHg 44%
    10:00 +16°C° 0 mm 1 m/S 614 mmHg 41%
    11:00 +18°C° 0 mm 1 m/S 615 mmHg 38%
    12:00 +19°C° 0 mm 1 m/S 615 mmHg 35%
    13:00 +16°C° 0.1 mm 1 m/S 614 mmHg 44%
    14:00 +14°C° 0.1 mm 1 m/S 613 mmHg 52%
    15:00 +13°C° 0.1 mm 1 m/S 612 mmHg 61%
    16:00 +12°C° 0.6 mm 1 m/S 611 mmHg 69%
    17:00 +11°C° 0.6 mm 1 m/S 611 mmHg 77%
    18:00 +10°C° 0.6 mm 1 m/S 610 mmHg 85%
    19:00 +9°C° 1.2 mm 1 m/S 610 mmHg 88%
    20:00 +8°C° 1.2 mm 1 m/S 610 mmHg 90%
    21:00 +8°C° 1.2 mm 1 m/S 610 mmHg 93%
    22:00 +8°C° 0.7 mm 1 m/S 610 mmHg 93%
    23:00 +7°C° 0.7 mm 1 m/S 610 mmHg 94%

    Morgen, 24 Mai, Freitag

    Zeit Temperatur Niederschläge Wind Luftdruck Luftfeuchtigkeit
    00:00 +7°C° 0.7 mm 1 m/S 610 mmHg 94%
    01:00 +7°C° 2.4 mm 1 m/S 609 mmHg 95%
    02:00 +6°C° 2.4 mm 0 m/S 609 mmHg 95%
    03:00 +6°C° 2.4 mm 0 m/S 609 mmHg 96%
    04:00 +6°C° 2.3 mm 1 m/S 609 mmHg 96%
    05:00 +6°C° 2.3 mm 1 m/S 609 mmHg 96%
    06:00 +6°C° 2.3 mm 1 m/S 609 mmHg 96%
    07:00 +6°C° 2 mm 1 m/S 609 mmHg 95%
    08:00 +6°C° 2 mm 1 m/S 609 mmHg 95%
    09:00 +6°C° 2 mm 1 m/S 609 mmHg 95%
    10:00 +6°C° 1 mm 1 m/S 609 mmHg 94%
    11:00 +5°C° 1 mm 2 m/S 609 mmHg 93%
    12:00 +5°C° 1 mm 2 m/S 609 mmHg 91%
    13:00 +6°C° 0.5 mm 2 m/S 609 mmHg 89%
    14:00 +6°C° 0.5 mm 2 m/S 609 mmHg 87%
    15:00 +7°C° 0.5 mm 2 m/S 609 mmHg 85%
    16:00 +6°C° 0.6 mm 2 m/S 608 mmHg 88%
    17:00 +6°C° 0.6 mm 2 m/S 608 mmHg 90%
    18:00 +6°C° 0.6 mm 1 m/S 608 mmHg 92%
    19:00 +5°C° 0.7 mm 2 m/S 608 mmHg 94%
    20:00 +5°C° 0.7 mm 2 m/S 608 mmHg 95%
    21:00 +4°C° 0.7 mm 2 m/S 608 mmHg 96%
    22:00 +4°C° 0.9 mm 2 m/S 608 mmHg 96%
    23:00 +4°C° 0.9 mm 2 m/S 608 mmHg 96%

    übermorgen, 25 Mai, Samstag

    Zeit Temperatur Niederschläge Wind Luftdruck Luftfeuchtigkeit
    00:00 +4°C° 0.9 mm 2 m/S 608 mmHg 96%
    01:00 +4°C° 1.2 mm 2 m/S 608 mmHg 96%
    02:00 +4°C° 1.2 mm 2 m/S 608 mmHg 96%
    03:00 +4°C° 1.2 mm 2 m/S 608 mmHg 96%
    04:00 +4°C° 1 mm 2 m/S 608 mmHg 96%
    05:00 +4°C° 1 mm 2 m/S 608 mmHg 96%
    06:00 +4°C° 1 mm 2 m/S 608 mmHg 95%
    07:00 +5°C° 0.7 mm 2 m/S 609 mmHg 94%
    08:00 +6°C° 0.7 mm 2 m/S 609 mmHg 92%
    09:00 +6°C° 0.7 mm 2 m/S 610 mmHg 91%
    10:00 +7°C° 0.2 mm 2 m/S 610 mmHg 87%
    11:00 +8°C° 0.2 mm 2 m/S 610 mmHg 84%
    12:00 +8°C° 0.2 mm 3 m/S 610 mmHg 81%
    13:00 +8°C° 0.2 mm 3 m/S 610 mmHg 80%
    14:00 +9°C° 0.2 mm 3 m/S 610 mmHg 79%
    15:00 +9°C° 0.2 mm 3 m/S 610 mmHg 79%
    16:00 +8°C° 0.3 mm 3 m/S 610 mmHg 82%
    17:00 +7°C° 0.3 mm 3 m/S 610 mmHg 86%
    18:00 +5°C° 0.3 mm 3 m/S 609 mmHg 89%
    19:00 +5°C° 0.2 mm 3 m/S 610 mmHg 90%
    20:00 +4°C° 0.2 mm 3 m/S 610 mmHg 92%
    21:00 +4°C° 0.2 mm 3 m/S 610 mmHg 93%
    22:00 +3°C° 0.1 mm 3 m/S 610 mmHg 93%
    23:00 +3°C° 0.1 mm 3 m/S 610 mmHg 93%

    26 Mai, Sonntag

    Zeit Temperatur Niederschläge Wind Luftdruck Luftfeuchtigkeit
    00:00 +3°C° 0.1 mm 3 m/S 609 mmHg 92%
    01:00 +3°C° 0.1 mm 3 m/S 609 mmHg 92%
    02:00 +3°C° 0.1 mm 3 m/S 609 mmHg 93%
    03:00 +3°C° 0.1 mm 3 m/S 609 mmHg 93%
    04:00 +3°C° 0 mm 3 m/S 609 mmHg 91%
    05:00 +3°C° 0 mm 3 m/S 609 mmHg 90%
    06:00 +4°C° 0 mm 3 m/S 609 mmHg 88%
    07:00 +5°C° 0 mm 3 m/S 610 mmHg 83%
    08:00 +7°C° 0 mm 3 m/S 611 mmHg 78%
    09:00 +8°C° 0 mm 3 m/S 611 mmHg 74%
    10:00 +9°C° 0 mm 3 m/S 612 mmHg 70%
    11:00 +10°C° 0 mm 3 m/S 612 mmHg 67%
    12:00 +10°C° 0 mm 3 m/S 612 mmHg 63%
    13:00 +11°C° 0 mm 3 m/S 612 mmHg 61%
    14:00 +11°C° 0 mm 3 m/S 612 mmHg 59%
    15:00 +12°C° 0 mm 3 m/S 612 mmHg 57%
    16:00 +11°C° 0 mm 3 m/S 611 mmHg 62%
    17:00 +10°C° 0 mm 3 m/S 611 mmHg 68%
    18:00 +9°C° 0 mm 3 m/S 610 mmHg 74%
    19:00 +7°C° 0 mm 2 m/S 610 mmHg 80%
    20:00 +6°C° 0 mm 2 m/S 610 mmHg 85%
    21:00 +4°C° 0 mm 2 m/S 610 mmHg 91%
    22:00 +4°C° 0 mm 2 m/S 610 mmHg 91%
    23:00 +4°C° 0 mm 2 m/S 610 mmHg 91%

    27 Mai, Montag

    Zeit Temperatur Niederschläge Wind Luftdruck Luftfeuchtigkeit
    00:00 +4°C° 0 mm 2 m/S 609 mmHg 91%
    01:00 +3°C° 0 mm 2 m/S 609 mmHg 92%
    02:00 +3°C° 0 mm 2 m/S 609 mmHg 92%
    03:00 +3°C° 0 mm 2 m/S 609 mmHg 92%
    04:00 +4°C° 0 mm 2 m/S 609 mmHg 88%
    05:00 +4°C° 0 mm 2 m/S 609 mmHg 84%
    06:00 +5°C° 0 mm 2 m/S 609 mmHg 81%
    07:00 +7°C° 0 mm 2 m/S 610 mmHg 69%
    08:00 +9°C° 0 mm 2 m/S 611 mmHg 57%
    09:00 +13°C° 0 mm 2 m/S 612 mmHg 46%
    10:00 +14°C° 0 mm 2 m/S 613 mmHg 43%
    11:00 +15°C° 0 mm 2 m/S 613 mmHg 41%
    12:00 +17°C° 0 mm 2 m/S 613 mmHg 39%
    13:00 +16°C° 0 mm 2 m/S 613 mmHg 42%
    14:00 +16°C° 0 mm 2 m/S 612 mmHg 45%
    15:00 +16°C° 0 mm 2 m/S 612 mmHg 48%
    16:00 +15°C° 0 mm 1 m/S 611 mmHg 57%
    17:00 +13°C° 0 mm 1 m/S 611 mmHg 65%
    18:00 +12°C° 0 mm 1 m/S 610 mmHg 74%
    19:00 +11°C° 0 mm 1 m/S 610 mmHg 79%
    20:00 +10°C° 0 mm 1 m/S 610 mmHg 85%
    21:00 +8°C° 0 mm 0 m/S 610 mmHg 91%
    22:00 +7°C° 0 mm 0 m/S 609 mmHg 92%
    23:00 +7°C° 0 mm 0 m/S 609 mmHg 93%

    28 Mai, Dienstag

    Zeit Temperatur Niederschläge Wind Luftdruck Luftfeuchtigkeit
    00:00 +7°C° 0 mm 0 m/S 609 mmHg 94%
    01:00 +7°C° 0 mm 0 m/S 608 mmHg 94%
    02:00 +7°C° 0 mm 0 m/S 608 mmHg 94%
    03:00 +6°C° 0 mm 0 m/S 608 mmHg 94%
    04:00 +7°C° 0 mm 0 m/S 608 mmHg 93%
    05:00 +7°C° 0 mm 0 m/S 608 mmHg 91%
    06:00 +7°C° 0 mm 0 m/S 608 mmHg 90%
    07:00 +9°C° 0 mm 1 m/S 608 mmHg 84%
    08:00 +11°C° 0 mm 1 m/S 609 mmHg 78%
    09:00 +12°C° 0 mm 1 m/S 609 mmHg 72%
    10:00 +12°C° 0.1 mm 1 m/S 609 mmHg 73%
    11:00 +11°C° 0.1 mm 1 m/S 609 mmHg 75%
    12:00 +11°C° 0.1 mm 1 m/S 608 mmHg 76%
    13:00 +11°C° 0.4 mm 1 m/S 608 mmHg 78%
    14:00 +11°C° 0.4 mm 1 m/S 608 mmHg 81%
    15:00 +11°C° 0.4 mm 1 m/S 608 mmHg 83%
    16:00 +10°C° 0.6 mm 1 m/S 608 mmHg 85%
    17:00 +9°C° 0.6 mm 2 m/S 608 mmHg 87%
    18:00 +8°C° 0.6 mm 2 m/S 608 mmHg 89%
    19:00 +8°C° 0.3 mm 2 m/S 608 mmHg 92%
    20:00 +8°C° 0.3 mm 1 m/S 608 mmHg 94%
    21:00 +7°C° 0.3 mm 1 m/S 608 mmHg 97%
    22:00 +7°C° 0.3 mm 1 m/S 608 mmHg 97%
    23:00 +6°C° 0.3 mm 1 m/S 608 mmHg 97%
    Mehr zeigen